Kosmos-1452

operational
NORAD ID: 13991 Int'l Des: 1983-031 Owner: GUKOS Country: SU
LEOCIRCULAR

Kosmos-1452について

説明を読み込み中...

リアルタイム位置

3D地球を読み込み中...

次回通過

高度履歴

Altitude vs Time

uPlot chart will show altitude changes over time

軌道要素

1 13991U 83031A 26062.40855452 .00000208 00000-0 83950-4 0 9996
2 13991 74.0484 36.0152 0015213 27.1509 89.9775 14.33964121241450
Epoch: Mar 3, 2026 • Age: 28 hours

現在のステータス

高度 778.5 km
速度 7.47 km/s
衛星直下点 -20.50°S, 172.93°E
打ち上げ日 Apr 12, 1983
運用期間 42.8 years
タイプ other

技術仕様

分類 Payload
質量 800.00 kg
乾燥質量 800.00 kg
総質量 800.00 kg
長さ 3.00 m
直径 2.00 m
スパン 3.00 m
形状 Cyl
製造者 NPOPM
バスタイプ Strela-2M
フェーズステータス In Orbit
所有者/国 GUKOS/SU

大規模コンステレーション

Loading constellations...